Location: Unspecified
(42.7170°S, 0.0000°E)
Time: 03:05:04
(UTC+00:00)

N. Korean satellite - Pass Details

Date: 22 May 2019
Orbit: 455 x 510 km, 97.2° (Epoch: 16 June)

Event Time Altitude Azimuth Distance (km) Brightness Sun altitude
Rises 06:10:35 0° 337° (NNW) 2,473 10.1 -11.2°
Reaches altitude 10° 06:13:09 10° 315° (NW) 1,613 8.9 -10.7°
Maximum altitude 06:15:28 17° 273° (W) 1,260 8.1 -10.3°
Enters shadow 06:16:42 15° 248° (WSW) 1,376 8.2 -10.1°
